Preview of NWS' New Version of Forecast
This preview is not operational and should not be used for support decisions.

Regional Weather Roundup (RWR)

Issued by National Weather Service (NWS)

                            
000
ASUS44 KJAN 210910
RWRMS 

MISSISSIPPI HOURLY WEATHER ROUNDUP
NATIONAL WEATHER SERVICE JACKSON MS
400 AM CDT SUN APR 21 2019

NOTE: "FAIR: INDICATES FEW OR NO CLOUDS BELOW 12,000 FEET WITH NO
SIGNIFICANT WEATHER AND/OR OBSTRUCTIONS TO VISIBILITY.

MSZ001>002-007>008-010>013-018>021-025>028-034>036-211000-
NORTHWEST MISSISSIPPI
  
CITY           SKY/WX    TMP DP  RH WIND       PRES   REMARKS
BATESVILLE       N/A     43  43 100 CALM      30.02R                  
CLARKSDALE     CLEAR     50  46  87 S5        30.01R                  
CLEVELAND      FAIR      51  46  80 S6        30.01R                  
GREENWOOD      FAIR      47  43  86 CALM      30.03R                  
GREENVILLE     FAIR      50  44  80 S6        30.01R                  
OLIVE BRANCH   CLEAR     45  45 100 S6        30.00R                  
OXFORD         FAIR      41  39  93 CALM      30.03R                  
TUNICA           N/A     46  43  87 S6        30.01R                  
WINONA         FAIR      42  42 100 CALM      30.03R                  
$$

MSZ003>006-009-014>017-022>024-029>033-037>039-211000-
NORTHEAST MISSISSIPPI
  
CITY           SKY/WX    TMP DP  RH WIND       PRES   REMARKS
ABERDEEN       FAIR      39  39 100 CALM      30.05R                  
COLUMBUS AFB   FAIR      42  39  90 CALM      30.03R                  
CORINTH        FAIR      45  43  93 CALM      30.02R                  
GOLDN TRIANGLE FAIR      46  40  79 CALM      30.04R                  
STARKVILLE     FAIR      41  39  93 CALM      30.05R                  
TUPELO         FAIR      46  40  79 CALM      30.02R                  
$$

MSZ040-058-211000-
CENTRAL MISSISSIPPI
  
CITY           SKY/WX    TMP DP  RH WIND       PRES   REMARKS
JACKSON INTL   FAIR      46  41  82 SE3       30.05R                  
JACKSON HAWKNS FAIR      48  45  89 SE3       30.05R                  
MADISON        FAIR      45  45 100 CALM      30.04S                  
MERIDIAN KEY   FAIR      44  41  89 CALM      30.06R                  
MERIDIAN NAS   FAIR      45  40  82 CALM      30.06R                  
RAYMOND        FAIR      43  43 100 CALM      30.04S                  
VICKSBURG VKS  SUNNY     46  45  93 CALM      30.04R                  
$$

MSZ059>079-211000-
SOUTH MISSISSIPPI
  
CITY           SKY/WX    TMP DP  RH WIND       PRES   REMARKS
HATTIESBURG    FAIR      44  41  89 CALM      30.08S                  
LAUREL         SUNNY     44  44  97 CALM      30.07S                  
MCCOMB         FAIR      45  41  86 CALM      30.06R                  
NATCHEZ        FAIR      48  46  93 S6        30.05R                  
PINE BELT      FAIR      42  41  96 CALM      30.08R                  
$$

MSZ080>082-211000-
COASTAL MISSISSIPPI
  
CITY           SKY/WX    TMP DP  RH WIND       PRES   REMARKS
BILOXI         FAIR      51  44  75 CALM      30.07S                  
PASCAGOULA     FAIR      44  41  89 CALM      30.08S FOG              
GULFPORT       FAIR      46  43  89 NW3       30.08R                  
$$

LAZ007>009-015>016-023>026-211000-
NORTHEAST LOUISIANA
  
CITY           SKY/WX    TMP DP  RH WIND       PRES   REMARKS
BASTROP        FAIR      47  47  97 CALM      30.02S                  
TALLULAH/VBURG FAIR      53  47  79 CALM      30.04R                  
VIDALIA        FAIR      53  50  90 CALM      30.04R                  
$$